User: anonymous   Login
Location: Unspecified
(0.0000°N, 0.0000°E)
Time: 09:35:07
(UTC+00:00)
Language:

Azur - Orbit

View from above orbital plane
View from above orbital plane
View from above satellite
View from above satellite

Ground track
Ground track

The orbit data is extracted from the following two-line orbital elements,

1  4221U 69097A   17289.83740044 +.00003251 +00000-0 +15751-3 0  9990
2  4221 102.6804 209.1122 0636004 183.8066 175.8126 14.23466124266502
Epoch (UTC): 16 October 2017 20:05:51
Eccentricity: 0.0636004
inclination: 102.6804°
perigee height: 356 km
apogee height: 1271 km
right ascension of ascending node: 209.1122°
argument of perigee: 183.8066°
revolutions per day: 14.23466124
mean anomaly at epoch: 175.8126°
orbit number at epoch: 26650

The dashed part of the orbit path shows where the satellite is in the earth's shadow,  

DLR